This is the latest recevied weather packets stored in our database for station/object DB8NZ-22. If no packets are shown the sender has not sent any weather packets the latest 1 day(s).
| Time | Temp. | Humidity | Pressure | Rain* | Wind** | Luminosity | Snow |
|---|---|---|---|---|---|---|---|
| 1777768834 | 11.67° C | 49% | 1016.6 hPa | - | - | - | - |
| 1777767934 | 11.67° C | 49% | 1016.6 hPa | - | - | - | - |
| 1777767034 | 12.22° C | 49% | 1016.7 hPa | - | - | - | - |
| 1777766133 | 12.22° C | 49% | 1016.8 hPa | - | - | - | - |
| 1777765233 | 12.22° C | 48% | 1016.8 hPa | - | - | - | - |
| 1777764333 | 12.78° C | 47% | 1016.9 hPa | - | - | - | - |
| 1777763433 | 13.33° C | 46% | 1016.9 hPa | - | - | - | - |
| 1777762533 | 13.33° C | 46% | 1016.9 hPa | - | - | - | - |
| 1777761633 | 13.33° C | 45% | 1016.9 hPa | - | - | - | - |
| 1777760733 | 13.89° C | 45% | 1017 hPa | - | - | - | - |
| 1777759833 | 13.89° C | 44% | 1016.9 hPa | - | - | - | - |
| 1777758933 | 14.44° C | 43% | 1017 hPa | - | - | - | - |
| 1777758033 | 15° C | 42% | 1017.1 hPa | - | - | - | - |
| 1777757133 | 15° C | 41% | 1017 hPa | - | - | - | - |
| 1777756233 | 15.56° C | 41% | 1017.1 hPa | - | - | - | - |
| 1777755332 | 16.11° C | 40% | 1017.2 hPa | - | - | - | - |
| 1777754432 | 16.11° C | 40% | 1017.2 hPa | - | - | - | - |
| 1777753532 | 16.67° C | 38% | 1017.3 hPa | - | - | - | - |
| 1777752632 | 17.22° C | 38% | 1017.4 hPa | - | - | - | - |
| 1777751732 | 17.78° C | 37% | 1017.2 hPa | - | - | - | - |
| 1777750832 | 18.33° C | 36% | 1017.3 hPa | - | - | - | - |
| 1777749932 | 19.44° C | 34% | 1017.2 hPa | - | - | - | - |
| 1777749032 | 20° C | 34% | 1017.1 hPa | - | - | - | - |
| 1777748132 | 21.11° C | 32% | 1017.1 hPa | - | - | - | - |
| 1777747232 | 22.78° C | 29% | 1017 hPa | - | - | - | - |
* Rain since midnight (hover to see other rain measurements)
** Current wind speed in m/s (hover to see current wind gust speed)